TimeCST,TemperatureF,Dew PointF,Humidity,Sea Level PressureIn,VisibilityMPH,Wind Direction,Wind SpeedMPH,Gust SpeedMPH,PrecipitationIn,Events,Conditions,WindDirDegrees,DateUTC
12:55 AM,41.9,41.7,99,30.04,10.0,North,3.5,-,N/A,,Clear,360,2012-12-19 06:55:00
1:55 AM,41.2,41.2,100,30.04,10.0,North,4.6,-,N/A,,Clear,350,2012-12-19 07:55:00
2:55 AM,40.8,40.8,100,30.04,10.0,Calm,Calm,-,N/A,,Clear,0,2012-12-19 08:55:00
3:55 AM,39.9,39.9,100,30.03,10.0,NNE,3.5,-,N/A,,Clear,30,2012-12-19 09:55:00
4:55 AM,40.5,40.5,100,30.04,10.0,NNE,4.6,-,N/A,,Clear,30,2012-12-19 10:55:00
5:55 AM,40.3,40.3,100,30.06,10.0,North,5.8,-,N/A,,Clear,10,2012-12-19 11:55:00
6:55 AM,44.4,44.4,100,30.07,10.0,ENE,4.6,-,N/A,,Clear,70,2012-12-19 12:55:00
7:55 AM,51.6,51.6,100,30.09,10.0,ENE,4.6,-,N/A,,Clear,60,2012-12-19 13:55:00
8:46 AM,57.2,57.2,100,30.10,10.0,East,3.5,-,N/A,,Light Drizzle,80,2012-12-19 14:46:00
8:55 AM,59.2,58.3,97,30.10,10.0,ESE,3.5,-,0.00,,Light Drizzle,110,2012-12-19 14:55:00
9:55 AM,67.8,59.2,74,30.11,10.0,SSE,5.8,-,0.00,,Light Drizzle,150,2012-12-19 15:55:00
10:55 AM,70.9,58.1,64,30.09,10.0,South,9.2,-,0.00,,Light Drizzle,170,2012-12-19 16:55:00
11:55 AM,70.2,57.7,65,30.07,10.0,South,6.9,-,0.00,,Light Drizzle,170,2012-12-19 17:55:00
12:00 PM,71.6,57.2,60,30.07,10.0,South,6.9,-,N/A,,Clear,180,2012-12-19 18:00:00
12:22 PM,71.6,57.2,60,30.06,10.0,South,6.9,-,N/A,,Light Drizzle,170,2012-12-19 18:22:00
12:25 PM,71.6,57.2,60,30.06,10.0,South,8.1,-,N/A,,Clear,170,2012-12-19 18:25:00
12:28 PM,71.6,59.0,64,30.06,10.0,SSE,8.1,-,N/A,,Light Drizzle,160,2012-12-19 18:28:00
12:55 PM,71.4,58.5,64,30.05,10.0,SSE,9.2,-,0.00,,Light Drizzle,160,2012-12-19 18:55:00
1:55 PM,70.2,58.8,67,30.04,10.0,SSE,9.2,-,0.00,,Light Drizzle,150,2012-12-19 19:55:00
2:55 PM,70.0,59.4,69,30.02,10.0,SE,9.2,-,0.00,,Light Drizzle,140,2012-12-19 20:55:00
3:19 PM,69.8,59.0,68,30.03,10.0,SSE,8.1,-,N/A,,Clear,150,2012-12-19 21:19:00
3:33 PM,68.0,59.0,73,30.03,10.0,SSE,9.2,-,N/A,,Light Drizzle,150,2012-12-19 21:33:00
3:47 PM,68.0,60.8,78,30.02,10.0,SSE,8.1,-,N/A,,Clear,150,2012-12-19 21:47:00
3:51 PM,68.0,60.8,78,30.03,10.0,SSE,8.1,-,N/A,,Light Drizzle,150,2012-12-19 21:51:00
3:53 PM,68.0,60.8,78,30.03,10.0,SSE,8.1,-,N/A,,Clear,150,2012-12-19 21:53:00
3:55 PM,68.4,60.1,75,30.03,10.0,SSE,8.1,-,0.00,,Clear,150,2012-12-19 21:55:00
4:11 PM,68.0,60.8,78,30.02,10.0,SE,6.9,-,N/A,,Light Drizzle,140,2012-12-19 22:11:00
4:28 PM,66.2,60.8,83,30.02,10.0,SE,6.9,-,N/A,,Clear,130,2012-12-19 22:28:00
4:55 PM,65.3,60.6,85,30.02,10.0,SE,5.8,-,0.00,,Clear,130,2012-12-19 22:55:00
5:05 PM,66.2,60.8,83,30.03,10.0,SE,4.6,-,N/A,,Light Drizzle,130,2012-12-19 23:05:00
5:18 PM,64.4,60.8,88,30.02,10.0,SE,5.8,-,N/A,,Clear,130,2012-12-19 23:18:00
5:19 PM,64.4,60.8,88,30.02,10.0,SE,5.8,-,N/A,,Light Drizzle,130,2012-12-19 23:19:00
5:55 PM,65.3,61.5,88,30.02,10.0,SE,6.9,-,0.00,,Light Drizzle,140,2012-12-19 23:55:00
6:55 PM,66.0,61.7,86,30.01,10.0,SE,8.1,-,0.00,,Light Drizzle,140,2012-12-20 00:55:00
7:00 PM,66.2,62.6,88,30.02,10.0,SE,8.1,-,N/A,,Clear,140,2012-12-20 01:00:00
7:02 PM,66.2,62.6,88,30.02,10.0,SE,6.9,-,N/A,,Light Drizzle,140,2012-12-20 01:02:00
7:55 PM,66.0,63.0,90,30.01,10.0,SE,8.1,-,0.00,,Light Drizzle,140,2012-12-20 01:55:00
8:47 PM,66.2,64.4,94,30.02,10.0,SSE,11.5,-,N/A,,Light Drizzle,150,2012-12-20 02:47:00
8:55 PM,67.1,64.4,91,30.02,10.0,SSE,10.4,-,0.00,,Light Drizzle,150,2012-12-20 02:55:00
9:19 PM,68.0,64.4,88,30.01,10.0,SE,12.7,-,N/A,,Light Drizzle,140,2012-12-20 03:19:00
9:55 PM,67.1,65.1,93,30.01,10.0,SE,10.4,-,0.00,,Light Drizzle,130,2012-12-20 03:55:00
10:04 PM,66.2,64.4,94,30.01,10.0,SE,11.5,-,N/A,,Mostly Cloudy,140,2012-12-20 04:04:00
10:05 PM,66.2,64.4,94,30.01,10.0,SE,11.5,-,N/A,,Scattered Clouds,140,2012-12-20 04:05:00
10:07 PM,66.2,64.4,94,30.01,10.0,SE,8.1,-,N/A,,Light Drizzle,140,2012-12-20 04:07:00
10:08 PM,66.2,64.4,94,30.01,10.0,SE,9.2,-,N/A,,Mostly Cloudy,140,2012-12-20 04:08:00
10:10 PM,66.2,64.4,94,30.01,10.0,SE,9.2,-,N/A,,Scattered Clouds,130,2012-12-20 04:10:00
10:13 PM,66.2,66.2,100,30.01,10.0,SE,12.7,-,N/A,,Light Drizzle,140,2012-12-20 04:13:00
10:55 PM,66.9,65.7,96,30.00,10.0,SE,9.2,-,0.00,,Light Drizzle,140,2012-12-20 04:55:00
11:05 PM,68.0,66.2,94,30.00,10.0,SE,10.4,-,N/A,,Light Drizzle,140,2012-12-20 05:05:00
11:55 PM,67.8,66.9,97,29.98,10.0,SE,12.7,-,0.00,,Light Drizzle,140,2012-12-20 05:55:00